Time,TemperatureF,DewpointF,PressureIn,WindDirection,WindDirectionDegrees,WindSpeedMPH,WindSpeedGustMPH,Humidity,HourlyPrecipIn,Conditions,Clouds,dailyrainin,SoftwareType,DateUTC
2013-01-30 06:55:00,64.6,62.5,29.93,SSE,150,1.0,1.0,93,0.00,,,0.00,Wunderground v.1.15,2013-01-30 11:55:00,
2013-01-30 07:00:00,64.6,62.5,29.93,West,264,1.0,3.0,93,0.00,,,0.00,Wunderground v.1.15,2013-01-30 12:00:00,
2013-01-30 07:05:00,64.6,62.5,29.92,ESE,110,1.0,3.0,93,0.00,,,0.00,Wunderground v.1.15,2013-01-30 12:05:00,
2013-01-30 07:10:00,64.7,62.6,29.92,SSE,156,1.0,1.0,93,0.00,,,0.00,Wunderground v.1.15,2013-01-30 12:10:00,
2013-01-30 07:15:00,64.6,62.5,29.92,East,99,0.0,1.0,93,0.00,,,0.00,Wunderground v.1.15,2013-01-30 12:15:00,
2013-01-30 07:25:00,64.6,62.5,29.91,ESE,108,1.0,1.0,93,0.00,,,0.00,Wunderground v.1.15,2013-01-30 12:25:00,
2013-01-30 07:30:00,64.7,62.6,29.91,SSW,205,1.0,2.0,93,0.00,,,0.00,Wunderground v.1.15,2013-01-30 12:30:00,
2013-01-30 07:40:00,64.8,62.7,29.91,South,179,1.0,1.0,93,0.00,,,0.00,Wunderground v.1.15,2013-01-30 12:40:00,
2013-01-30 07:45:00,64.9,62.8,29.91,SSE,159,2.0,2.0,93,0.00,,,0.00,Wunderground v.1.15,2013-01-30 12:45:00,
2013-01-30 07:55:00,65.1,62.7,29.91,NE,56,1.0,1.0,92,0.00,,,0.00,Wunderground v.1.15,2013-01-30 12:55:00,
2013-01-30 08:00:00,65.2,62.8,29.90,SW,226,1.0,2.0,92,0.00,,,0.00,Wunderground v.1.15,2013-01-30 13:00:00,
2013-01-30 08:10:00,65.5,62.8,29.90,SE,142,2.0,2.0,91,0.00,,,0.00,Wunderground v.1.15,2013-01-30 13:10:00,
2013-01-30 08:15:00,65.7,63.0,29.90,SE,137,2.0,2.0,91,0.00,,,0.00,Wunderground v.1.15,2013-01-30 13:15:00,
2013-01-30 08:25:00,65.7,63.0,29.90,SW,231,1.0,2.0,91,0.00,,,0.00,Wunderground v.1.15,2013-01-30 13:25:00,
2013-01-30 08:30:00,65.7,63.0,29.90,SSW,205,1.0,3.0,91,0.00,,,0.00,Wunderground v.1.15,2013-01-30 13:30:00,
2013-01-30 08:40:00,66.1,63.1,29.89,South,181,3.0,3.0,90,0.00,,,0.00,Wunderground v.1.15,2013-01-30 13:40:00,
2013-01-30 08:45:00,66.3,63.3,29.89,SE,133,3.0,3.0,90,0.00,,,0.00,Wunderground v.1.15,2013-01-30 13:45:00,
2013-01-30 08:50:00,66.4,63.1,29.89,SSW,200,2.0,2.0,89,0.00,,,0.00,Wunderground v.1.15,2013-01-30 13:50:00,
2013-01-30 08:55:00,66.4,63.1,29.88,SSE,160,2.0,2.0,89,0.00,,,0.00,Wunderground v.1.15,2013-01-30 13:55:00,
2013-01-30 09:05:00,66.5,63.2,29.88,WNW,302,2.0,3.0,89,0.00,,,0.00,Wunderground v.1.15,2013-01-30 14:05:00,
2013-01-30 09:10:00,66.5,63.2,29.88,SE,139,2.0,2.0,89,0.00,,,0.00,Wunderground v.1.15,2013-01-30 14:10:00,
2013-01-30 09:20:00,66.6,63.3,29.88,South,169,2.0,2.0,89,0.00,,,0.00,Wunderground v.1.15,2013-01-30 14:20:00,
2013-01-30 09:25:00,66.7,63.4,29.87,SSW,198,2.0,2.0,89,0.00,,,0.00,Wunderground v.1.15,2013-01-30 14:25:00,
2013-01-30 09:30:00,66.8,63.5,29.88,ESE,112,2.0,2.0,89,0.00,,,0.00,Wunderground v.1.15,2013-01-30 14:30:00,
2013-01-30 10:30:00,67.1,63.7,29.87,SE,136,2.0,2.0,89,0.00,,,0.00,Wunderground v.1.15,2013-01-30 15:30:00,
2013-01-30 10:40:00,67.0,63.6,29.86,SSE,153,1.0,3.0,89,0.00,,,0.00,Wunderground v.1.15,2013-01-30 15:40:00,
2013-01-30 10:45:00,67.1,63.7,29.86,SE,141,2.0,3.0,89,0.00,,,0.00,Wunderground v.1.15,2013-01-30 15:45:00,
2013-01-30 10:55:00,67.1,63.7,29.86,WNW,285,1.0,5.0,89,0.00,,,0.00,Wunderground v.1.15,2013-01-30 15:55:00,
2013-01-30 11:00:00,67.1,64.1,29.86,SSE,154,2.0,2.0,90,0.00,,,0.00,Wunderground v.1.15,2013-01-30 16:00:00,
2013-01-30 11:10:00,67.0,64.0,29.86,SE,138,2.0,2.0,90,0.00,,,0.00,Wunderground v.1.15,2013-01-30 16:10:00,
2013-01-30 11:15:00,67.0,64.0,29.85,ESE,108,1.0,2.0,90,0.00,,,0.00,Wunderground v.1.15,2013-01-30 16:15:00,
2013-01-30 11:25:00,66.7,64.0,29.84,WSW,240,1.0,4.0,91,0.00,,,0.00,Wunderground v.1.15,2013-01-30 16:25:00,
2013-01-30 11:30:00,66.5,64.1,29.84,ESE,108,1.0,1.0,92,0.00,,,0.00,Wunderground v.1.15,2013-01-30 16:30:00,
2013-01-30 11:40:00,66.2,64.1,29.83,East,86,1.0,1.0,93,0.00,,,0.00,Wunderground v.1.15,2013-01-30 16:40:00,
2013-01-30 11:45:00,66.2,64.1,29.83,SSW,194,2.0,2.0,93,0.00,,,0.00,Wunderground v.1.15,2013-01-30 16:45:00,
2013-01-30 11:50:00,66.2,64.1,29.83,SSE,167,2.0,2.0,93,0.00,,,0.00,Wunderground v.1.15,2013-01-30 16:50:00,
2013-01-30 11:55:00,66.2,64.1,29.82,East,94,2.0,2.0,93,0.00,,,0.00,Wunderground v.1.15,2013-01-30 16:55:00,
2013-01-30 12:05:00,66.4,64.3,29.81,SSE,155,2.0,2.0,93,0.00,,,0.00,Wunderground v.1.15,2013-01-30 17:05:00,
2013-01-30 12:10:00,66.4,64.3,29.80,East,87,2.0,2.0,93,0.00,,,0.00,Wunderground v.1.15,2013-01-30 17:10:00,
2013-01-30 12:20:00,66.6,64.2,29.79,South,183,1.0,2.0,92,0.00,,,0.00,Wunderground v.1.15,2013-01-30 17:20:00,
2013-01-30 12:25:00,66.7,64.3,29.79,SSE,159,1.0,2.0,92,0.00,,,0.00,Wunderground v.1.15,2013-01-30 17:25:00,
2013-01-30 12:30:00,66.8,64.4,29.80,SSW,193,2.0,2.0,92,0.00,,,0.00,Wunderground v.1.15,2013-01-30 17:30:00,
2013-01-30 12:40:00,67.0,64.3,29.79,SE,146,2.0,2.0,91,0.00,,,0.00,Wunderground v.1.15,2013-01-30 17:40:00,
2013-01-30 12:45:00,67.1,64.4,29.78,SSE,167,2.0,2.0,91,0.00,,,0.00,Wunderground v.1.15,2013-01-30 17:45:00,
2013-01-30 12:55:00,67.4,64.4,29.78,SE,145,1.0,1.0,90,0.00,,,0.00,Wunderground v.1.15,2013-01-30 17:55:00,
2013-01-30 13:00:00,67.5,64.5,29.77,SE,143,1.0,1.0,90,0.00,,,0.00,Wunderground v.1.15,2013-01-30 18:00:00,
2013-01-30 13:10:00,67.9,64.5,29.76,SE,146,1.0,1.0,89,0.00,,,0.00,Wunderground v.1.15,2013-01-30 18:10:00,
2013-01-30 13:15:00,68.1,64.7,29.76,ENE,73,1.0,1.0,89,0.00,,,0.00,Wunderground v.1.15,2013-01-30 18:15:00,
2013-01-30 13:20:00,68.4,64.7,29.75,South,183,1.0,1.0,88,0.00,,,0.00,Wunderground v.1.15,2013-01-30 18:20:00,
2013-01-30 13:30:00,68.8,65.1,29.74,South,179,1.0,2.0,88,0.00,,,0.00,Wunderground v.1.15,2013-01-30 18:30:00,
2013-01-30 13:35:00,69.2,64.8,29.74,ESE,120,1.0,2.0,86,0.00,,,0.00,Wunderground v.1.15,2013-01-30 18:35:00,
2013-01-30 13:40:00,69.5,65.1,29.74,SSE,161,2.0,2.0,86,0.00,,,0.00,Wunderground v.1.15,2013-01-30 18:40:00,
2013-01-30 13:50:00,70.3,65.2,29.73,SE,131,1.0,3.0,84,0.00,,,0.00,Wunderground v.1.15,2013-01-30 18:50:00,
2013-01-30 13:55:00,70.6,65.2,29.72,ENE,75,1.0,3.0,83,0.00,,,0.00,Wunderground v.1.15,2013-01-30 18:55:00,
2013-01-30 14:00:00,70.9,65.1,29.72,SSW,200,1.0,3.0,82,0.00,,,0.00,Wunderground v.1.15,2013-01-30 19:00:00,
2013-01-30 14:10:00,71.0,64.9,29.71,SE,126,1.0,1.0,81,0.00,,,0.00,Wunderground v.1.15,2013-01-30 19:10:00,
2013-01-30 14:15:00,70.9,64.8,29.70,SE,138,1.0,1.0,81,0.00,,,0.00,Wunderground v.1.15,2013-01-30 19:15:00,
2013-01-30 14:25:00,71.1,65.0,29.69,ESE,120,2.0,2.0,81,0.00,,,0.00,Wunderground v.1.15,2013-01-30 19:25:00,
2013-01-30 14:30:00,71.4,65.3,29.69,SSE,154,1.0,1.0,81,0.00,,,0.00,Wunderground v.1.15,2013-01-30 19:30:00,
2013-01-30 14:35:00,71.8,64.9,29.68,ESE,109,1.0,2.0,79,0.00,,,0.00,Wunderground v.1.15,2013-01-30 19:35:00,
2013-01-30 14:45:00,72.0,65.1,29.67,SSE,167,2.0,4.0,79,0.00,,,0.00,Wunderground v.1.15,2013-01-30 19:45:00,
2013-01-30 14:50:00,72.0,65.1,29.67,South,172,2.0,2.0,79,0.00,,,0.00,Wunderground v.1.15,2013-01-30 19:50:00,
2013-01-30 15:00:00,71.9,64.7,29.67,ESE,122,2.0,2.0,78,0.00,,,0.00,Wunderground v.1.15,2013-01-30 20:00:00,
2013-01-30 15:10:00,72.0,64.8,29.66,SE,127,2.0,3.0,78,0.00,,,0.00,Wunderground v.1.15,2013-01-30 20:10:00,
2013-01-30 15:20:00,72.4,65.2,29.66,SE,142,2.0,2.0,78,0.00,,,0.00,Wunderground v.1.15,2013-01-30 20:20:00,
2013-01-30 15:25:00,72.7,65.1,29.66,ENE,68,1.0,2.0,77,0.00,,,0.00,Wunderground v.1.15,2013-01-30 20:25:00,
2013-01-30 15:30:00,73.1,65.1,29.65,SE,128,2.0,2.0,76,0.00,,,0.00,Wunderground v.1.15,2013-01-30 20:30:00,
2013-01-30 15:40:00,73.0,65.0,29.65,East,83,2.0,2.0,76,0.00,,,0.00,Wunderground v.1.15,2013-01-30 20:40:00,
2013-01-30 15:45:00,72.7,64.7,29.64,SSE,160,2.0,2.0,76,0.00,,,0.00,Wunderground v.1.15,2013-01-30 20:45:00,
2013-01-30 15:55:00,72.5,64.9,29.64,ESE,115,1.0,1.0,77,0.00,,,0.00,Wunderground v.1.15,2013-01-30 20:55:00,
2013-01-30 16:00:00,72.4,64.4,29.64,NNW,329,2.0,2.0,76,0.00,,,0.00,Wunderground v.1.15,2013-01-30 21:00:00,
2013-01-30 16:10:00,72.2,64.2,29.63,SW,224,2.0,2.0,76,0.00,,,0.00,Wunderground v.1.15,2013-01-30 21:10:00,
2013-01-30 16:15:00,72.3,64.3,29.63,South,170,2.0,3.0,76,0.00,,,0.00,Wunderground v.1.15,2013-01-30 21:15:00,
2013-01-30 16:25:00,72.3,63.9,29.63,East,89,2.0,4.0,75,0.00,,,0.00,Wunderground v.1.15,2013-01-30 21:25:00,
2013-01-30 16:30:00,72.3,64.3,29.62,SE,134,2.0,2.0,76,0.00,,,0.00,Wunderground v.1.15,2013-01-30 21:30:00,
2013-01-30 16:35:00,72.2,64.2,29.61,ESE,118,3.0,3.0,76,0.00,,,0.00,Wunderground v.1.15,2013-01-30 21:35:00,
2013-01-30 16:40:00,72.1,64.1,29.61,SE,139,2.0,2.0,76,0.00,,,0.00,Wunderground v.1.15,2013-01-30 21:40:00,
2013-01-30 16:50:00,71.9,63.9,29.60,SSE,158,2.0,2.0,76,0.00,,,0.00,Wunderground v.1.15,2013-01-30 21:50:00,
2013-01-30 16:55:00,71.9,63.9,29.60,SSW,193,2.0,2.0,76,0.00,,,0.00,Wunderground v.1.15,2013-01-30 21:55:00,
2013-01-30 17:00:00,71.8,63.8,29.61,ENE,78,2.0,3.0,76,0.00,,,0.00,Wunderground v.1.15,2013-01-30 22:00:00,
2013-01-30 17:10:00,71.4,63.8,29.61,ENE,76,2.0,3.0,77,0.00,,,0.00,Wunderground v.1.15,2013-01-30 22:10:00,
2013-01-30 17:15:00,71.3,63.7,29.61,East,89,2.0,3.0,77,0.00,,,0.00,Wunderground v.1.15,2013-01-30 22:15:00,
2013-01-30 17:25:00,71.1,63.9,29.60,ESE,110,2.0,2.0,78,0.00,,,0.00,Wunderground v.1.15,2013-01-30 22:25:00,
2013-01-30 17:30:00,70.9,63.7,29.60,ESE,116,1.0,1.0,78,0.00,,,0.00,Wunderground v.1.15,2013-01-30 22:30:00,
2013-01-30 17:40:00,70.8,63.6,29.59,ESE,111,2.0,2.0,78,0.00,,,0.00,Wunderground v.1.15,2013-01-30 22:40:00,
2013-01-30 17:45:00,70.7,63.5,29.60,NNW,329,2.0,2.0,78,0.00,,,0.00,Wunderground v.1.15,2013-01-30 22:45:00,
2013-01-30 17:55:00,70.6,63.4,29.59,ESE,117,2.0,2.0,78,0.00,,,0.00,Wunderground v.1.15,2013-01-30 22:55:00,
2013-01-30 18:00:00,70.5,63.3,29.58,SSW,192,2.0,2.0,78,0.00,,,0.00,Wunderground v.1.15,2013-01-30 23:00:00,
2013-01-30 18:10:00,70.1,62.9,29.58,East,86,2.0,2.0,78,0.00,,,0.00,Wunderground v.1.15,2013-01-30 23:10:00,
2013-01-30 18:15:00,69.8,62.6,29.57,ESE,112,1.0,2.0,78,0.00,,,0.00,Wunderground v.1.15,2013-01-30 23:15:00,
2013-01-30 18:20:00,69.7,62.5,29.57,SE,128,1.0,1.0,78,0.00,,,0.00,Wunderground v.1.15,2013-01-30 23:20:00,
2013-01-30 18:25:00,69.7,62.2,29.56,East,82,1.0,2.0,77,0.00,,,0.00,Wunderground v.1.15,2013-01-30 23:25:00,
2013-01-30 18:35:00,69.8,62.3,29.56,ENE,74,2.0,2.0,77,0.00,,,0.00,Wunderground v.1.15,2013-01-30 23:35:00,
2013-01-30 18:40:00,69.7,62.2,29.55,SE,135,2.0,2.0,77,0.00,,,0.00,Wunderground v.1.15,2013-01-30 23:40:00,
2013-01-30 18:45:00,69.6,62.1,29.54,NNW,331,2.0,3.0,77,0.00,,,0.00,Wunderground v.1.15,2013-01-30 23:45:00,
2013-01-30 18:55:00,69.6,62.1,29.54,SE,134,2.0,3.0,77,0.00,,,0.00,Wunderground v.1.15,2013-01-30 23:55:00,
2013-01-30 19:00:00,69.6,62.1,29.55,NE,44,2.0,3.0,77,0.00,,,0.00,Wunderground v.1.15,2013-01-31 00:00:00,
2013-01-30 19:10:00,69.7,62.2,29.53,SE,146,2.0,2.0,77,0.00,,,0.00,Wunderground v.1.15,2013-01-31 00:10:00,
2013-01-30 19:15:00,69.6,62.1,29.52,ESE,112,2.0,3.0,77,0.00,,,0.00,Wunderground v.1.15,2013-01-31 00:15:00,
2013-01-30 19:25:00,69.6,61.7,29.52,ENE,76,3.0,3.0,76,0.00,,,0.00,Wunderground v.1.15,2013-01-31 00:25:00,
2013-01-30 19:30:00,69.5,61.6,29.52,South,177,2.0,2.0,76,0.00,,,0.00,Wunderground v.1.15,2013-01-31 00:30:00,
2013-01-30 19:40:00,69.3,61.8,29.52,SE,125,2.0,2.0,77,0.00,,,0.00,Wunderground v.1.15,2013-01-31 00:40:00,
2013-01-30 19:45:00,69.3,62.1,29.51,ENE,68,2.0,4.0,78,0.00,,,0.00,Wunderground v.1.15,2013-01-31 00:45:00,
2013-01-30 19:50:00,69.2,62.0,29.51,ESE,116,2.0,3.0,78,0.00,,,0.00,Wunderground v.1.15,2013-01-31 00:50:00,
2013-01-30 20:00:00,69.4,62.2,29.50,ESE,118,3.0,3.0,78,0.00,,,0.00,Wunderground v.1.15,2013-01-31 01:00:00,
2013-01-30 20:05:00,69.4,62.2,29.51,ENE,75,2.0,5.0,78,0.00,,,0.00,Wunderground v.1.15,2013-01-31 01:05:00,
2013-01-30 20:15:00,69.4,62.2,29.50,SE,129,3.0,3.0,78,0.00,,,0.00,Wunderground v.1.15,2013-01-31 01:15:00,
2013-01-30 20:20:00,69.3,62.5,29.49,ESE,110,2.0,2.0,79,0.00,,,0.00,Wunderground v.1.15,2013-01-31 01:20:00,
2013-01-30 20:25:00,69.3,62.5,29.50,South,173,2.0,2.0,79,0.00,,,0.00,Wunderground v.1.15,2013-01-31 01:25:00,
2013-01-30 20:30:00,69.4,62.6,29.49,ESE,116,2.0,2.0,79,0.00,,,0.00,Wunderground v.1.15,2013-01-31 01:30:00,
2013-01-30 20:40:00,69.4,62.6,29.50,NE,39,2.0,4.0,79,0.00,,,0.00,Wunderground v.1.15,2013-01-31 01:40:00,
2013-01-30 20:45:00,69.4,62.6,29.49,East,100,2.0,5.0,79,0.00,,,0.00,Wunderground v.1.15,2013-01-31 01:45:00,
2013-01-30 20:55:00,69.7,62.9,29.47,ENE,68,2.0,5.0,79,0.00,,,0.00,Wunderground v.1.15,2013-01-31 01:55:00,
2013-01-30 21:00:00,69.6,62.8,29.48,SE,129,2.0,6.0,79,0.00,,,0.00,Wunderground v.1.15,2013-01-31 02:00:00,
2013-01-30 21:10:00,69.8,63.0,29.47,SE,134,2.0,2.0,79,0.00,,,0.00,Wunderground v.1.15,2013-01-31 02:10:00,
2013-01-30 21:15:00,69.8,63.0,29.47,ESE,104,3.0,3.0,79,0.00,,,0.00,Wunderground v.1.15,2013-01-31 02:15:00,
2013-01-30 21:25:00,69.8,63.3,29.46,ENE,74,2.0,5.0,80,0.00,,,0.00,Wunderground v.1.15,2013-01-31 02:25:00,
2013-01-30 21:30:00,69.9,63.4,29.46,NE,39,3.0,3.0,80,0.00,,,0.00,Wunderground v.1.15,2013-01-31 02:30:00,
2013-01-30 21:40:00,69.9,63.4,29.45,South,174,2.0,5.0,80,0.00,,,0.00,Wunderground v.1.15,2013-01-31 02:40:00,
2013-01-30 21:45:00,69.9,63.4,29.45,South,175,3.0,5.0,80,0.00,,,0.00,Wunderground v.1.15,2013-01-31 02:45:00,
2013-01-30 21:50:00,69.9,63.8,29.45,SSW,194,3.0,3.0,81,0.00,,,0.00,Wunderground v.1.15,2013-01-31 02:50:00,
2013-01-30 22:00:00,68.3,63.9,29.44,East,82,2.0,2.0,86,0.00,,,0.01,Wunderground v.1.15,2013-01-31 03:00:00,
2013-01-30 22:10:00,67.2,63.8,29.43,NE,45,2.0,7.0,89,0.08,,,0.02,Wunderground v.1.15,2013-01-31 03:10:00,
2013-01-30 22:15:00,66.8,63.8,29.42,East,95,2.0,7.0,90,0.07,,,0.03,Wunderground v.1.15,2013-01-31 03:15:00,
2013-01-30 22:20:00,66.6,63.9,29.41,ESE,118,2.0,2.0,91,0.07,,,0.03,Wunderground v.1.15,2013-01-31 03:20:00,
2013-01-30 22:25:00,66.5,63.8,29.41,ENE,64,2.0,2.0,91,0.04,,,0.03,Wunderground v.1.15,2013-01-31 03:25:00,
2013-01-30 22:30:00,66.5,63.8,29.40,ESE,110,2.0,2.0,91,0.00,,,0.03,Wunderground v.1.15,2013-01-31 03:30:00,
2013-01-30 22:40:00,66.5,63.8,29.39,SE,139,2.0,2.0,91,0.00,,,0.03,Wunderground v.1.15,2013-01-31 03:40:00,
2013-01-30 22:45:00,66.4,63.7,29.39,SSW,211,2.0,8.0,91,0.00,,,0.04,Wunderground v.1.15,2013-01-31 03:45:00,
2013-01-30 22:55:00,66.5,64.1,29.39,SSE,150,2.0,3.0,92,0.00,,,0.04,Wunderground v.1.15,2013-01-31 03:55:00,
2013-01-30 23:00:00,66.3,63.9,29.39,South,172,2.0,4.0,92,0.00,,,0.04,Wunderground v.1.15,2013-01-31 04:00:00,
2013-01-30 23:10:00,65.8,64.0,29.43,South,174,3.0,3.0,94,0.98,,,0.22,Wunderground v.1.15,2013-01-31 04:10:00,
2013-01-30 23:15:00,65.0,63.2,29.43,SSW,200,3.0,3.0,94,0.24,,,0.24,Wunderground v.1.15,2013-01-31 04:15:00,
2013-01-30 23:25:00,63.8,62.3,29.44,South,191,2.0,3.0,95,0.05,,,0.24,Wunderground v.1.15,2013-01-31 04:25:00,
2013-01-30 23:30:00,63.2,61.4,29.44,SE,127,2.0,2.0,94,0.04,,,0.25,Wunderground v.1.15,2013-01-31 04:30:00,
2013-01-30 23:35:00,62.5,60.4,29.44,SSW,203,3.0,3.0,93,0.04,,,0.25,Wunderground v.1.15,2013-01-31 04:35:00,
2013-01-30 23:40:00,61.7,59.7,29.45,South,181,3.0,4.0,93,0.04,,,0.25,Wunderground v.1.15,2013-01-31 04:40:00,
2013-01-30 23:50:00,60.3,58.3,29.45,ESE,113,4.0,4.0,93,0.00,,,0.25,Wunderground v.1.15,2013-01-31 04:50:00,
2013-01-30 23:55:00,59.9,57.9,29.47,SSW,195,2.0,4.0,93,0.00,,,0.25,Wunderground v.1.15,2013-01-31 04:55:00,